User: anonymous   Login
Location: Unspecified
(33.2407°S, 0.0000°E)
Time: 12:06:08
(UTC+00:00)
Language:

XW-2A - Orbit

View from above orbital plane
View from above orbital plane
View from above satellite
View from above satellite

Ground track
Ground track

The orbit data is extracted from the following two-line orbital elements,

1 40903U 15049E   19203.13512172  .00001009  00000-0  25691-4 0  9999
2 40903  97.3345 246.0842 0014420  30.5692  53.8450 15.41926296215403
Epoch (UTC): 22 July 2019 03:14:34
Eccentricity: 0.0014420
inclination: 97.3345°
perigee height: 430 km
apogee height: 450 km
right ascension of ascending node: 246.0842°
argument of perigee: 30.5692°
revolutions per day: 15.41926296
mean anomaly at epoch: 53.8450°
orbit number at epoch: 21540

The dashed part of the orbit path shows where the satellite is in the earth's shadow,  

DLR